Wind_Speed
16 16 14 12 11 11 9 9 9 9 10 12 13 13 15 15 16 16 15 14 14 13 12 12 12 12 11 10 10 11 12 13 14 15 15 16 17 18 18 19 19 19 19 19 20 20 20 20 19 19 18 18 17 17 16 16 15 15 14 14 14 14 14 14 13 13 12 11 10 9 9 9 9 10 10 10 9 9 9 9 10 11 12 11 10
18 17 15 14 13 13 13 12 11 10 9 10 11 12 13 15 16 17 17 17 16 16 15 14 14 14 13 12 11 12 12 14 15 15 15 15 16 16 17 17 17 17 17 18 18 19 19 19 18 18 18 18 17 17 16 16 16 15 15 15 15 15 15 15 14 14 14 12 12 11 10 10 10 10 11 11 10 10 10 11 11 13 14 15 14
21 20 19 18 15 15 16 15 13 12 12 11 10 11 12 14 15 17 18 18 18 18 18 17 16 15 15 14 13 12 13 13 14 15 14 14 14 14 15 15 16 16 16 17 17 17 18 18 17 17 17 17 17 16 16 16 15 15 15 15 15 15 15 15 15 15 15 14 14 14 13 13 13 13 14 14 14 14 14 14 15 17 17 18 17
23 23 22 21 18 16 18 18 15 13 13 13 11 11 12 14 15 16 17 18 19 19 19 18 17 16 15 15 14 13 12 12 13 13 13 13 13 13 13 13 14 15 15 15 16 16 16 16 16 16 16 16 16 16 15 15 15 15 15 15 15 15 16 16 16 17 17 17 16 16 16 17 17 18 19 19 19 19 19 19 19 20 20 20 20
26 26 26 25 22 19 20 20 18 16 14 14 13 12 13 14 16 17 17 18 19 19 19 19 18 17 16 15 14 13 12 11 12 12 12 12 12 11 11 12 12 13 13 14 14 14 15 15 15 15 15 15 14 14 14 14 14 14 14 15 15 15 15 16 17 18 18 19 19 19 20 21 22 22 23 23 22 22 22 22 21 21 21 21 22
28 29 28 26 25 23 22 20 20 20 18 16 13 13 14 16 18 19 18 17 18 20 20 20 19 18 17 15 14 13 13 12 11 12 12 12 12 11 11 11 11 11 12 12 12 13 13 13 13 13 13 13 13 13 13 13 13 13 13 14 14 14 14 15 16 18 19 20 21 22 23 24 25 25 25 25 24 23 23 23 23 23 24 24 24
30 30 29 27 26 26 25 22 20 20 21 20 18 15 15 18 20 21 20 19 18 20 21 21 21 20 19 16 15 14 13 12 12 12 12 12 12 12 11 11 11 10 10 11 11 10 10 11 11 11 11 11 11 11 11 11 11 11 12 12 12 13 14 14 15 16 18 19 21 23 24 25 25 25 25 24 23 23 23 24 24 25 25 26 27
31 30 29 27 25 24 24 24 23 22 22 23 23 21 19 19 21 21 21 21 20 21 23 24 23 22 20 19 17 15 13 13 12 12 12 12 12 11 11 11 10 10 9 9 9 8 8 9 9 9 9 9 8 8 8 9 9 10 10 10 11 11 12 13 14 15 16 17 19 21 22 23 24 24 24 23 22 21 21 22 23 24 26 27 28
32 30 29 28 26 27 27 27 26 25 25 24 25 26 25 23 23 23 22 22 22 22 24 25 26 25 23 21 19 17 15 14 13 13 13 12 11 11 11 10 10 9 8 7 7 6 6 7 7 7 8 7 6 6 6 6 7 8 9 9 9 10 10 11 12 13 14 15 17 18 20 21 22 22 22 21 20 19 18 19 20 22 24 26 27
33 32 31 29 29 31 32 32 32 31 30 29 28 29 28 27 27 25 23 24 24 24 24 26 27 27 26 24 21 19 17 16 16 15 15 14 13 12 11 10 10 9 7 6 5 5 4 5 5 5 6 6 6 5 4 4 5 6 7 9 9 9 9 10 10 11 12 13 14 16 17 18 19 20 19 19 17 16 15 15 16 18 20 23 25
36 34 32 30 30 31 32 34 36 35 34 33 32 31 30 29 29 28 26 26 27 27 27 26 27 27 28 27 24 21 19 19 19 18 17 17 16 15 13 12 11 10 9 8 7 6 5 4 4 3 4 4 4 4 4 3 3 3 4 6 8 9 9 10 10 10 11 11 13 14 15 16 16 17 17 16 16 14 13 12 12 13 15 17 20
39 37 33 32 32 33 34 36 39 40 38 35 35 35 33 31 31 31 30 28 29 29 29 28 27 28 28 28 27 24 22 21 20 20 19 19 19 18 17 15 13 12 11 10 10 8 7 6 5 4 4 4 4 4 3 3 3 3 2 2 4 6 7 8 9 9 10 10 11 11 12 13 14 14 14 14 13 13 11 10 9 8 9 11 13
41 40 39 37 37 38 38 38 39 42 42 40 39 38 37 35 35 35 33 31 31 31 31 30 29 29 29 29 27 26 25 23 22 21 21 21 20 19 18 17 16 14 12 12 11 10 9 8 6 6 6 6 6 6 6 5 5 5 4 3 2 1 3 5 6 7 8 8 8 8 9 9 10 10 10 10 10 10 9 8 7 6 5 6 7
42 42 42 43 42 41 41 41 42 45 46 44 43 42 40 39 39 39 38 36 35 34 34 33 32 31 31 30 28 26 26 26 25 24 23 22 21 20 19 18 17 15 14 14 13 12 11 10 9 8 8 8 7 8 8 8 8 7 7 7 6 4 2 1 1 3 4 5 5 5 5 6 6 6 6 6 6 6 5 5 4 3 2 2 3
48 45 44 45 43 36 34 38 43 47 48 49 48 47 45 43 42 43 42 40 39 38 38 36 34 34 33 32 30 28 26 26 27 27 25 23 23 22 21 20 18 17 16 15 15 15 14 13 11 10 10 9 9 9 10 10 10 9 9 10 9 8 7 6 5 3 1 1 2 3 4 4 4 3 3 2 2 2 1 1 1 0 0 1 2
55 52 49 48 45 35 29 31 34 37 43 48 50 50 48 46 45 45 45 43 42 42 41 39 37 36 35 35 34 31 29 28 28 29 28 26 25 25 23 21 20 18 17 16 17 17 16 15 14 12 12 11 10 11 12 13 12 10 10 11 11 11 10 10 9 8 6 4 3 3 4 5 5 4 4 4 4 4 4 4 4 4 3 4 4
60 57 54 51 47 40 32 29 29 30 36 44 47 48 49 49 47 47 47 46 45 45 45 43 40 38 38 38 38 36 33 31 30 31 31 30 28 28 26 24 21 19 18 17 18 18 18 17 16 15 14 13 12 13 14 14 14 13 11 12 12 12 12 14 13 11 9 9 7 7 7 8 8 9 8 8 8 7 8 8 8 8 8 8 8
60 58 56 52 48 43 39 36 33 32 35 41 45 45 46 47 48 49 50 49 49 48 48 46 44 42 41 41 41 40 37 34 33 32 32 32 31 30 29 28 25 22 19 18 19 19 19 19 19 18 17 16 15 15 15 16 16 15 13 13 13 11 12 15 17 14 12 12 12 11 11 11 11 11 11 11 11 11 11 11 11 11 12 12 12
64 62 61 58 54 52 50 48 46 44 43 44 46 46 45 46 48 50 51 51 51 51 51 50 48 46 44 44 45 44 40 37 35 33 34 34 33 33 32 32 30 26 22 20 20 20 20 20 20 20 20 19 18 17 17 17 18 17 15 14 13 11 11 16 19 17 14 14 14 15 15 13 12 11 12 12 13 14 14 14 14 13 14 15 15
73 71 71 68 66 64 63 61 60 58 56 55 55 55 54 53 51 52 53 53 53 53 53 52 51 50 50 49 49 48 45 40 36 35 34 34 35 35 34 33 32 29 26 24 23 22 22 22 21 21 21 21 19 19 18 18 20 19 17 15 13 11 12 17 20 19 16 15 15 16 17 15 13 12 12 12 14 16 16 16 16 16 16 16 17
82 80 77 75 73 72 73 72 71 69 67 66 64 63 62 61 58 56 55 55 54 53 53 53 52 53 54 54 53 51 49 44 40 38 36 35 35 35 35 34 33 32 31 29 26 25 24 23 23 22 22 22 21 20 19 19 20 21 18 15 13 12 13 17 20 21 19 17 17 18 18 16 14 13 12 13 14 16 17 17 17 17 18 18 18
87 86 84 81 79 78 78 79 79 76 73 72 70 67 65 65 65 63 61 58 56 54 53 53 53 53 54 55 54 53 50 47 44 42 40 37 36 35 35 35 34 34 34 33 30 28 26 25 24 24 24 24 23 22 20 20 20 22 21 18 15 14 14 17 20 21 21 20 19 19 19 18 16 14 14 14 15 16 16 15 15 16 17 18 20
87 87 86 84 82 80 80 81 83 81 78 74 73 71 69 67 68 67 65 62 60 58 55 53 53 53 54 56 56 54 52 51 50 48 43 40 38 36 36 36 36 36 36 35 33 32 30 28 27 26 26 26 25 23 22 22 22 22 22 21 18 16 16 17 18 20 22 22 21 20 20 20 19 17 17 17 17 16 15 14 14 15 15 16 18
85 84 82 81 79 79 80 81 81 81 78 75 73 73 73 70 69 68 68 66 64 63 61 58 56 55 55 56 57 57 56 55 55 53 49 45 42 39 37 37 38 38 37 36 35 35 34 32 31 30 29 28 27 26 25 25 24 23 23 22 21 19 17 17 17 19 21 23 23 22 21 21 22 22 22 21 20 17 15 14 14 15 15 14 15
87 86 86 85 83 82 82 83 82 80 78 77 75 75 76 74 72 70 69 68 67 66 65 64 62 60 59 59 59 60 60 59 58 57 55 52 48 45 42 40 40 41 41 39 38 37 36 36 34 33 32 31 30 29 29 28 26 25 24 23 22 21 20 19 18 19 21 23 24 24 24 23 25 26 26 24 22 18 16 15 15 16 16 15 15
95 95 95 94 91 87 85 86 86 85 84 83 81 80 79 78 76 73 71 70 70 70 70 69 67 66 64 63 62 62 62 62 61 61 60 58 55 52 49 46 44 43 44 43 41 39 39 38 37 36 34 33 33 33 32 31 30 28 27 25 24 24 22 20 20 21 23 25 25 25 26 26 27 28 28 26 25 21 18 17 18 19 19 19 19
102 102 101 99 95 91 88 88 88 88 88 87 86 84 83 82 81 79 76 73 72 73 74 74 73 72 70 68 67 66 66 65 64 64 63 62 60 58 55 53 49 45 44 45 44 43 42 40 39 38 37 36 36 36 35 34 33 33 31 30 29 27 24 22 24 27 29 30 29 28 28 28 29 31 30 28 28 27 23 23 24 24 23 23 24
106 105 103 101 98 95 93 91 90 88 88 88 88 87 86 85 84 83 81 78 76 76 75 75 74 75 75 73 71 70 69 68 66 65 66 65 64 62 60 58 54 49 46 46 46 45 45 43 43 42 41 40 40 39 39 38 37 37 36 35 34 32 28 27 30 33 35 35 34 32 30 30 32 34 33 31 31 30 28 28 30 30 28 28 29
107 106 104 102 100 98 96 95 93 91 89 88 88 88 88 88 87 86 85 83 82 81 80 77 74 74 75 77 75 73 73 72 69 67 67 67 67 66 64 62 59 56 52 49 48 47 47 47 47 46 45 44 43 43 43 42 41 40 40 39 39 38 35 35 37 38 38 38 38 36 34 33 34 35 36 35 35 33 31 31 33 35 33 33 33
108 108 106 104 102 101 100 98 96 95 93 91 89 89 89 89 89 89 89 88 87 86 85 84 80 76 75 76 77 77 76 75 74 71 69 68 68 68 67 66 64 62 58 55 53 51 49 49 49 49 48 47 46 46 46 46 45 44 44 43 43 43 43 42 42 41 40 40 40 39 37 37 37 38 39 39 40 38 34 33 35 37 37 36 36
111 110 109 107 105 103 102 101 100 98 97 95 93 92 91 91 91 91 92 92 91 90 90 89 87 83 79 77 77 78 78 77 76 74 73 72 71 71 70 69 68 67 64 61 58 55 54 52 52 51 51 50 49 49 48 48 48 48 48 48 48 48 49 49 48 46 44 43 43 42 41 41 42 42 41 41 42 42 38 36 36 38 39 39 39
113 112 111 110 108 106 105 105 103 102 100 99 97 96 95 94 94 94 94 95 95 94 94 93 92 90 87 83 81 81 81 80 79 78 77 76 75 74 73 72 71 70 68 66 63 61 59 58 56 54 54 54 53 52 51 52 52 51 51 51 52 52 53 53 53 51 48 46 46 46 45 45 46 46 45 44 44 43 42 40 38 38 39 40 40
116 115 114 113 111 110 109 108 107 106 104 103 101 100 99 98 97 97 97 97 98 97 97 97 96 94 93 91 89 86 85 84 83 83 82 80 79 77 76 75 74 73 72 70 68 66 64 63 61 60 59 58 56 54 54 54 55 55 55 55 55 56 56 57 57 56 54 52 51 50 49 48 48 49 50 49 48 46 45 43 41 40 40 41 42
119 118 117 116 115 114 113 112 111 110 108 107 105 104 103 102 101 100 100 100 100 100 100 100 99 99 97 96 95 93 91 89 87 87 87 85 84 82 80 78 77 76 75 73 72 71 70 68 67 66 66 65 63 59 58 57 57 57 58 58 59 59 59 60 60 59 58 57 56 55 53 52 51 52 54 54 53 51 49 46 45 44 44 44 45
121 121 120 119 118 117 117 116 115 114 112 111 109 107 106 104 103 103 103 103 102 102 103 103 103 102 101 100 99 98 97 94 92 91 90 90 90 88 86 84 81 80 79 78 77 76 75 74 73 72 72 72 71 69 66 64 62 61 61 62 62 62 62 63 63 62 61 61 61 60 58 56 55 54 55 56 56 54 53 51 49 48 47 48 49
123 122 122 121 121 120 120 119 118 117 116 115 113 111 109 108 107 106 106 106 106 106 105 105 105 106 105 104 103 102 101 100 98 97 95 94 94 93 92 91 89 87 86 84 83 82 81 80 79 78 77 77 76 75 74 72 70 68 67 66 66 65 66 66 66 66 65 64 64 63 62 61 59 57 56 56 57 57 56 55 52 50 48 47 48
124 124 124 123 123 123 123 122 122 120 119 118 117 115 114 112 111 110 109 109 109 109 109 109 108 108 108 108 108 107 106 105 104 103 101 99 98 97 97 96 95 94 93 92 90 89 87 85 84 83 83 83 83 82 80 78 77 75 74 73 71 70 69 69 69 69 68 67 66 67 66 65 64 62 58 57 58 59 58 57 56 54 52 50 49
126 126 125 125 125 125 125 125 124 123 122 121 120 118 117 116 116 114 113 112 112 112 112 112 111 111 111 111 111 111 110 110 109 108 107 105 103 102 101 101 100 99 98 97 96 95 93 92 91 90 89 90 89 88 86 83 81 80 79 79 78 77 75 74 74 74 72 70 69 70 69 68 68 67 64 61 60 60 61 61 60 59 59 58 57
126 127 127 127 127 127 127 127 126 125 124 123 122 122 121 120 119 118 117 116 115 114 114 114 114 114 114 114 114 113 113 113 113 112 112 110 109 107 105 105 104 104 103 103 101 100 99 98 97 96 96 95 94 93 90 88 85 83 82 82 82 83 82 81 81 80 78 75 72 72 72 72 71 70 69 66 64 63 63 64 64 64 63 64 64
127 127 128 128 128 128 128 128 128 127 126 125 125 124 124 123 123 122 121 120 120 119 118 117 117 116 116 116 116 116 115 115 115 115 115 114 114 112 111 109 107 107 107 107 106 106 104 103 102 101 100 99 98 96 94 92 90 88 86 85 85 85 85 85 85 85 84 81 78 76 75 75 74 73 72 71 69 67 66 66 67 67 67 67 67
126 127 128 128 129 129 129 129 129 129 128 128 127 126 126 126 125 125 124 124 123 122 122 121 120 120 119 118 118 118 118 118 118 118 117 117 117 116 115 114 112 110 109 109 109 109 108 108 107 106 105 104 102 101 99 97 95 93 90 89 88 87 87 87 87 87 87 86 84 81 79 78 78 78 77 76 74 72 70 69 69 70 70 70 70
125 126 126 127 128 128 129 129 129 130 130 129 129 128 128 127 127 127 127 127 126 126 125 125 124 124 123 122 121 120 120 120 120 120 120 120 119 119 118 118 116 115 113 111 111 110 110 110 109 109 108 107 106 104 102 100 99 97 95 93 91 91 90 90 90 89 89 89 88 87 85 83 83 82 82 82 80 78 76 74 73 72 72 73 74
124 125 125 126 126 127 127 128 129 129 130 130 130 130 129 129 129 129 129 129 129 128 128 128 128 127 127 126 125 124 123 123 123 123 122 122 122 121 121 120 119 118 117 115 114 113 112 111 111 111 110 109 108 107 105 103 102 100 99 97 95 94 93 93 93 92 91 90 91 91 90 89 88 87 86 86 86 84 82 81 79 77 76 75 76
122 123 124 125 125 126 126 127 127 128 129 129 130 130 130 130 131 131 130 130 130 130 130 130 130 130 130 130 129 128 128 127 126 125 125 124 124 123 123 122 121 121 120 119 118 117 115 114 114 113 113 112 111 109 108 107 105 104 102 101 99 98 97 97 96 95 94 93 93 93 93 93 92 92 91 91 90 89 88 87 86 84 82 81 80
121 122 122 123 124 124 125 126 126 127 127 128 128 129 130 130 131 131 132 132 132 132 132 132 132 132 132 132 132 132 131 131 130 129 128 128 127 126 125 124 124 123 122 122 121 120 119 118 117 116 115 115 114 113 111 110 108 107 106 104 103 102 101 101 100 99 97 96 96 96 96 95 95 95 95 95 95 94 93 92 91 90 89 88 86
120 120 121 121 122 123 124 124 125 126 126 127 127 128 128 129 130 131 132 132 133 133 133 133 134 134 134 134 135 135 134 134 133 132 132 131 130 129 128 127 126 125 124 123 123 122 121 120 118 117 117 117 116 116 114 113 112 111 109 108 106 105 104 104 104 102 101 100 99 98 98 98 98 98 98 98 98 98 97 97 96 95 94 93 92
119 119 120 120 121 121 122 123 123 124 125 126 126 127 128 128 129 129 130 131 132 133 134 134 135 135 136 136 136 136 136 136 135 135 134 134 133 132 131 130 129 128 127 126 125 124 123 121 120 119 118 118 117 117 117 116 115 114 112 111 109 108 107 107 106 106 105 104 103 102 101 101 100 100 100 100 100 100 101 101 101 100 99 98 98
115 117 118 118 119 120 120 121 122 122 123 124 125 125 126 127 127 128 129 130 131 132 133 134 135 136 136 137 137 137 137 137 137 137 137 136 136 135 134 133 132 131 130 129 129 128 126 125 123 122 121 119 119 118 118 117 117 116 114 113 111 110 110 109 109 108 108 108 107 106 105 104 103 103 103 103 102 102 102 103 104 104 104 103 102
109 111 113 114 116 117 118 119 120 121 122 123 123 124 125 125 126 127 127 128 129 130 131 132 133 135 136 136 137 137 137 138 138 139 138 138 138 137 136 136 135 134 133 132 132 131 130 129 127 126 124 123 122 121 120 119 118 117 116 115 114 112 111 111 111 110 110 110 110 109 109 108 107 107 106 106 105 105 104 105 105 106 107 107 106
102 104 106 109 111 113 115 116 118 119 120 121 122 123 123 124 124 125 126 126 127 128 129 129 130 131 133 134 135 136 137 138 139 139 139 139 139 139 138 137 137 136 135 134 134 133 133 132 131 129 128 127 126 125 124 123 121 120 119 118 116 115 114 113 113 113 113 112 112 111 111 111 111 110 110 109 109 108 108 108 108 108 109 109 109
97 98 100 103 105 107 109 111 113 115 117 118 119 121 122 123 123 124 124 125 125 126 126 127 127 128 129 130 131 133 135 136 137 138 139 139 139 139 139 139 138 138 137 136 136 135 135 134 133 132 132 131 130 129 128 126 125 124 123 121 120 119 118 117 116 115 115 114 114 113 113 112 112 113 113 113 112 112 111 111 111 111 111 111 112
Wind_Direction
295 292 285 280 279 275 268 260 261 264 265 273 284 291 295 294 295 299 302 305 306 306 311 320 326 326 325 330 340 348 359 9 15 23 33 38 41 44 46 48 48 47 46 45 46 49 50 50 48 47 47 45 44 43 41 39 37 35 33 29 28 28 29 30 31 33 34 35 35 34 32 30 28 30 30 29 27 24 21 18 15 17 25 33 38
290 291 287 285 284 282 275 266 271 282 283 280 283 287 291 291 291 295 300 304 306 306 310 315 322 328 328 330 335 343 352 3 9 15 25 34 38 40 43 45 46 46 45 44 44 47 49 50 49 47 46 45 45 44 41 38 36 35 34 33 32 33 35 37 39 41 43 46 49 49 47 44 42 42 41 41 38 36 34 33 31 35 40 46 51
278 281 284 285 287 288 283 270 264 278 292 294 294 297 299 297 293 294 299 303 304 304 306 312 317 324 329 331 333 337 344 353 360 5 12 22 30 35 37 40 43 45 44 43 42 43 46 48 48 47 46 46 46 44 41 39 38 36 36 36 37 38 40 45 47 48 50 53 56 56 55 55 55 55 54 52 50 49 47 47 47 49 51 55 61
268 273 277 279 279 282 284 274 258 260 279 287 291 299 305 305 300 297 298 300 301 300 300 304 309 315 322 328 331 331 333 340 348 353 359 7 17 25 30 34 38 41 43 42 40 40 42 45 46 46 46 46 46 44 42 41 40 40 39 40 41 42 45 49 52 55 57 58 59 59 58 58 59 60 59 57 57 56 55 56 57 58 60 63 68
262 266 270 271 271 272 275 271 262 259 266 273 280 291 301 305 304 299 295 295 297 296 293 294 296 301 309 318 324 325 325 327 333 340 346 352 2 11 18 25 31 37 40 41 39 37 37 40 42 44 45 46 46 44 43 41 42 43 43 44 45 46 47 50 54 57 58 59 60 59 58 57 58 59 59 60 60 61 62 64 65 66 68 72 76
263 265 264 263 264 265 266 263 259 260 261 260 266 280 292 299 300 299 296 294 296 295 292 290 289 291 295 302 309 315 317 318 319 325 333 341 348 356 3 12 19 28 35 39 39 36 35 35 36 39 42 44 45 44 43 41 41 43 43 45 49 50 51 53 55 58 60 60 59 58 56 55 55 58 59 61 63 66 69 73 75 77 79 82 85
259 258 257 259 259 260 261 256 251 255 260 262 265 270 280 289 293 296 297 296 297 298 295 291 288 287 288 288 290 295 302 307 308 312 320 328 336 343 348 356 4 13 23 32 37 36 33 31 31 34 38 43 45 45 43 42 42 43 43 44 48 51 53 56 58 60 62 63 62 60 56 55 54 56 58 61 65 70 77 83 87 89 91 93 95
253 251 250 254 257 258 259 255 250 248 252 259 264 265 271 280 284 287 291 293 295 297 296 292 290 289 288 284 281 280 281 287 292 297 303 312 321 328 334 340 347 355 5 17 28 33 33 29 25 26 31 37 45 47 45 44 45 47 47 46 48 50 52 56 59 61 62 64 65 64 61 58 56 56 58 61 66 72 80 89 94 96 99 102 104
253 252 250 251 255 256 255 253 253 252 250 251 255 259 264 270 273 275 280 283 286 289 291 291 289 289 289 287 285 283 280 280 282 286 292 299 306 311 316 322 328 336 344 354 6 19 27 27 21 18 18 21 31 41 45 45 48 53 57 56 54 53 55 58 60 61 63 64 65 66 65 62 60 58 58 61 65 70 78 88 96 102 106 109 110
250 253 254 256 259 259 256 254 253 255 255 254 252 252 258 264 266 267 269 272 275 278 281 284 285 286 286 287 287 287 287 285 284 286 288 293 298 299 301 303 307 311 318 324 335 349 5 17 16 11 7 4 7 14 25 33 39 52 64 68 65 61 62 64 65 65 67 67 67 69 69 68 65 61 60 60 63 67 73 83 96 105 111 114 116
245 248 251 253 253 252 252 252 252 253 254 254 251 251 255 259 260 260 261 262 265 268 271 274 278 281 283 284 283 283 283 283 283 284 285 288 291 295 298 300 301 303 306 309 313 318 326 340 350 351 350 347 346 344 348 355 2 20 52 71 74 70 65 64 66 67 69 71 71 71 72 72 70 67 64 62 62 64 67 75 89 105 114 119 122
240 239 240 242 243 243 244 249 252 252 251 250 249 249 252 253 254 256 257 256 257 261 264 267 272 276 279 281 280 278 276 277 278 281 282 282 284 288 293 298 301 302 302 302 303 304 305 308 309 310 308 306 305 306 306 304 305 311 334 36 74 76 71 66 64 64 65 68 71 70 71 72 72 71 68 65 63 64 66 70 79 93 108 120 127
234 234 234 233 234 238 239 241 245 248 249 249 247 248 249 248 249 252 255 254 254 257 259 262 266 270 272 275 276 274 271 271 273 277 280 280 281 281 283 287 291 293 293 293 292 292 289 286 285 288 291 292 294 295 295 292 288 284 284 286 298 49 73 70 65 60 59 60 62 64 65 66 68 68 68 67 66 65 65 69 77 84 96 118 134
228 231 233 231 231 236 239 239 241 245 246 245 244 246 247 247 247 250 252 252 252 254 256 258 261 264 265 266 268 269 268 268 268 270 275 279 281 280 278 279 281 282 283 281 280 279 277 274 272 275 279 282 286 289 290 290 289 286 284 283 282 282 288 325 41 54 53 50 47 46 48 50 53 54 57 61 64 64 64 68 75 85 102 133 157
220 222 227 230 230 235 240 242 246 250 249 246 246 248 248 247 247 248 249 250 250 251 253 255 257 259 259 260 262 264 265 266 265 266 268 273 277 277 276 275 274 273 273 272 271 270 268 265 260 260 263 266 273 278 280 281 280 280 281 283 283 283 282 282 278 273 288 6 27 23 14 13 9 4 2 6 19 34 39 51 61 59 202 222 221
214 214 219 225 227 228 233 239 246 249 248 247 248 249 248 247 247 248 248 248 248 248 249 251 253 256 256 256 258 261 263 263 263 263 264 266 270 272 272 272 271 270 268 266 266 264 263 262 259 255 255 256 261 268 272 274 275 274 273 276 279 282 284 282 275 268 265 265 275 307 320 324 320 308 296 287 277 272 266 256 253 258 255 256 255
212 209 212 218 221 221 224 230 235 238 241 243 244 245 246 245 245 247 246 245 245 247 248 249 250 252 254 255 255 258 261 260 259 260 261 262 265 268 268 268 268 268 266 265 264 261 259 259 258 256 254 254 257 261 265 268 270 268 266 269 274 279 285 285 281 275 272 270 270 280 291 297 296 289 281 271 264 262 260 254 255 255 253 255 258
214 210 210 215 218 218 217 216 218 222 229 233 233 235 239 241 243 245 246 245 245 245 246 248 249 251 253 253 253 255 258 259 258 257 257 258 261 265 266 266 265 266 265 263 262 261 259 258 256 255 254 252 252 253 256 261 263 262 261 263 268 274 280 282 283 282 280 277 276 277 280 280 279 277 272 266 262 259 256 253 252 253 253 255 259
219 217 218 220 222 223 221 217 217 219 223 228 231 233 238 241 242 244 245 246 246 246 245 247 248 250 252 252 252 252 254 256 257 257 256 255 256 259 261 261 262 264 265 263 260 260 260 258 257 255 252 247 242 242 245 252 257 259 258 258 261 263 263 269 277 282 282 282 281 280 278 274 270 266 263 261 259 256 254 253 251 252 253 255 258
227 228 230 231 231 232 230 228 228 229 233 238 242 244 245 245 244 244 244 245 246 246 246 246 247 249 250 251 251 252 252 252 252 253 255 255 255 256 257 258 259 260 262 261 258 257 258 258 255 252 250 245 239 236 238 244 251 255 254 252 254 252 247 256 269 278 282 283 283 281 278 276 271 265 260 258 257 256 254 252 252 252 253 255 257
232 233 234 235 236 237 238 237 236 237 240 243 245 247 247 246 245 244 244 244 244 245 246 246 246 248 251 252 252 253 253 252 250 249 251 253 254 254 255 257 259 260 260 259 257 254 253 254 253 251 251 249 242 237 236 240 248 254 254 250 249 246 244 250 262 273 279 281 279 277 276 275 272 267 263 259 257 256 254 252 252 253 253 254 256
233 233 234 236 237 239 241 242 241 241 242 243 244 244 245 245 245 245 244 243 243 243 244 246 246 247 249 251 253 254 254 253 252 250 249 250 252 252 252 254 257 259 260 259 259 257 253 250 249 248 251 250 247 244 244 245 250 253 254 253 251 249 247 250 257 267 274 277 276 275 276 275 272 269 267 264 259 258 257 254 252 252 252 252 254
234 234 235 237 239 240 242 242 242 242 242 242 242 242 243 244 245 245 245 244 243 242 243 244 245 246 246 248 250 252 252 251 251 250 249 250 251 252 252 253 254 256 257 257 257 257 256 252 249 247 249 249 249 249 251 253 253 253 253 254 255 253 251 250 253 259 266 271 274 275 275 276 276 275 274 270 264 260 259 257 255 253 252 251 253
235 234 235 237 239 241 242 241 241 240 240 239 240 241 242 243 243 245 245 245 244 244 244 244 244 244 245 245 246 249 250 250 250 251 251 250 251 252 254 255 256 256 257 255 253 252 253 253 251 250 250 251 251 251 253 256 257 254 252 252 253 253 255 254 254 256 260 265 269 271 271 271 272 273 273 270 265 258 253 252 253 254 253 252 253
236 236 237 239 242 244 242 240 239 238 238 239 239 240 241 242 242 243 244 245 245 246 246 246 246 245 245 245 245 247 248 249 250 251 252 251 250 250 252 255 257 257 257 255 253 249 248 249 250 251 252 252 252 253 254 256 257 256 254 251 251 254 259 261 261 259 259 261 263 266 267 265 264 267 269 269 265 257 248 247 250 253 255 255 254
238 239 241 243 244 244 242 240 239 239 239 240 241 241 241 241 241 241 242 243 245 246 246 247 247 247 246 246 246 246 247 248 249 251 252 252 251 251 251 253 255 257 256 256 255 252 249 248 249 251 252 252 252 253 254 254 254 254 254 252 252 255 261 266 268 264 259 257 259 264 266 265 266 268 270 271 268 262 256 256 258 259 261 263 261
239 241 243 244 244 243 241 240 240 240 240 241 241 242 241 241 241 240 240 241 243 244 245 246 247 247 247 247 246 245 245 246 247 248 250 251 252 252 252 252 253 254 255 255 255 255 253 251 250 251 252 252 251 252 253 254 253 252 253 253 253 254 257 262 264 264 261 261 263 264 265 266 269 271 271 271 270 267 267 269 269 268 268 269 269
240 241 242 243 243 243 242 241 240 240 240 241 241 242 242 241 241 240 240 240 240 241 242 243 244 245 247 247 246 245 244 244 244 245 247 249 250 251 252 252 252 253 253 253 254 255 255 254 252 251 251 251 251 251 253 255 254 253 253 254 255 254 252 253 256 258 259 261 264 265 263 263 265 267 267 267 266 266 268 271 271 270 269 269 270
240 240 241 241 242 242 242 241 241 241 240 240 241 241 242 242 241 240 239 239 239 240 240 241 241 242 244 246 246 246 245 244 243 244 245 246 248 250 251 252 252 252 252 253 253 254 255 255 254 253 251 251 251 252 254 256 256 255 254 256 258 259 257 255 256 256 257 259 263 264 263 261 260 261 262 262 262 262 261 263 266 267 267 267 267
240 240 241 241 241 241 242 242 242 241 241 240 240 240 241 241 241 241 240 239 238 239 239 240 240 240 241 243 245 246 245 244 244 244 244 244 245 247 248 250 252 252 253 253 253 254 255 256 255 254 252 252 252 252 253 255 257 257 257 258 260 262 262 261 260 259 259 260 261 262 263 262 260 258 257 259 260 259 255 255 259 263 264 264 266
240 240 241 241 241 241 241 242 242 242 242 241 240 239 240 240 241 241 241 240 239 239 239 240 241 241 241 242 243 245 245 245 244 244 244 244 244 244 245 247 249 251 252 253 253 254 255 256 256 254 253 252 253 253 253 254 255 256 257 259 261 263 264 264 263 261 260 260 261 261 261 263 262 260 256 256 257 257 254 251 253 259 262 263 265
240 241 241 241 241 241 241 242 242 243 243 242 241 240 240 240 240 240 241 241 240 240 240 241 241 242 242 242 243 243 244 245 244 243 243 244 244 244 244 244 245 246 248 250 251 252 254 255 255 255 253 252 253 255 255 255 255 255 256 258 260 261 263 264 264 263 262 261 261 260 261 262 263 262 260 257 256 256 255 252 250 253 257 260 263
240 240 241 241 242 242 241 241 242 243 243 243 242 241 241 240 240 240 240 241 241 240 241 242 242 243 243 243 243 243 244 244 244 243 243 243 244 244 244 244 244 244 244 246 247 250 252 253 254 254 253 252 251 253 255 256 256 256 256 257 258 260 261 262 263 263 263 262 261 260 259 260 262 262 261 260 258 257 256 254 252 251 252 256 259
241 241 241 241 241 242 242 242 242 242 242 243 243 242 242 241 241 241 241 241 241 241 241 242 243 244 244 245 245 245 245 244 245 244 244 244 244 244 244 244 244 244 244 244 245 247 249 251 252 252 253 252 251 252 253 255 257 257 257 257 257 258 259 260 261 262 262 262 262 260 258 258 259 261 261 262 261 260 258 256 255 254 253 254 256
241 241 241 241 241 242 242 242 242 242 242 242 243 243 243 242 242 242 242 241 241 241 242 242 242 244 245 246 246 246 246 246 245 245 245 245 245 245 245 245 245 245 245 246 246 246 248 250 251 252 252 252 252 253 254 255 256 257 257 258 258 258 258 259 259 260 261 261 261 261 259 258 257 258 260 261 262 262 261 259 258 258 258 259 259
241 242 242 242 242 242 242 242 243 243 243 243 243 243 243 243 243 242 242 242 242 242 242 242 243 243 244 245 246 247 247 247 247 247 247 247 247 246 246 246 246 247 248 248 248 248 248 249 250 251 252 252 253 254 255 256 256 256 256 257 258 258 258 258 258 258 259 259 260 260 260 259 258 257 258 259 261 262 262 261 260 260 261 262 262
241 242 242 242 242 242 242 242 243 243 243 243 243 243 243 243 243 243 243 242 242 242 242 243 243 244 244 245 246 247 247 248 248 248 248 248 248 248 248 248 247 248 248 249 250 250 250 250 250 250 252 253 254 255 256 256 256 256 255 255 256 257 258 259 258 258 257 258 259 259 259 259 259 258 257 258 259 261 262 262 261 259 258 258 258
241 241 242 242 243 243 243 243 243 243 243 243 243 243 243 243 244 244 244 243 243 243 243 243 243 243 244 245 246 246 247 248 248 249 249 249 249 249 249 249 248 248 248 249 249 249 250 251 251 251 252 253 255 256 256 256 255 255 255 255 255 256 257 258 259 258 257 256 257 257 258 258 259 258 258 257 258 260 261 262 262 260 259 258 258
242 242 242 242 243 243 243 244 244 244 243 243 244 244 244 244 244 244 244 244 244 244 244 244 243 243 243 244 245 246 247 248 248 249 249 250 250 249 249 249 249 249 249 249 249 249 249 250 251 252 253 253 255 256 256 256 255 255 255 255 255 255 256 257 258 258 257 256 255 255 256 257 257 258 258 258 257 258 259 261 262 262 262 261 260
243 243 243 243 243 243 244 244 244 245 244 244 244 244 244 244 244 245 245 245 245 245 245 245 245 244 244 244 244 244 245 247 248 249 249 250 250 250 250 250 249 249 250 250 250 250 250 250 250 251 252 253 254 255 256 256 256 256 256 255 255 256 256 257 257 257 257 256 256 255 255 255 255 256 257 257 257 257 258 259 260 262 263 263 263
244 244 244 244 244 244 244 244 245 245 245 245 245 245 244 244 245 245 245 245 245 245 246 246 246 246 245 245 245 244 245 245 246 247 248 249 250 251 251 251 250 250 250 250 251 251 251 251 251 251 252 252 253 254 255 256 256 256 256 255 255 255 256 257 257 256 256 256 256 256 255 255 254 254 255 255 256 257 257 258 259 260 261 262 263
244 244 244 244 245 245 245 245 245 245 246 246 246 246 245 245 245 245 245 245 246 246 246 246 246 246 246 246 246 245 245 245 246 246 247 248 249 250 250 251 251 251 250 250 251 251 252 252 252 253 253 253 253 254 254 255 255 256 256 255 255 255 255 256 256 257 256 255 255 255 256 256 256 255 255 255 255 255 256 257 258 259 260 260 261
244 244 245 245 245 245 245 245 246 246 246 246 246 246 246 246 246 246 246 246 246 246 246 246 247 247 247 247 246 246 246 246 246 246 246 247 248 248 249 250 251 251 251 251 251 251 251 252 253 253 253 254 254 254 255 255 255 255 255 255 255 255 255 255 256 256 256 256 255 255 255 255 256 256 256 256 256 256 256 257 258 258 259 260 260
244 244 245 245 246 246 246 246 246 246 246 246 246 246 247 247 247 247 247 246 246 246 246 246 247 247 247 247 247 247 247 246 246 246 246 247 247 247 248 249 249 250 251 251 251 251 251 251 252 253 253 254 254 254 255 255 255 255 255 255 255 255 255 255 255 255 256 256 256 256 256 255 255 256 257 257 257 257 257 257 258 259 260 261 261
244 245 245 245 246 246 246 247 247 247 247 247 247 247 247 247 247 247 247 247 247 247 247 247 247 247 247 247 248 248 247 247 247 247 247 247 247 247 247 248 248 249 250 250 251 251 251 251 251 252 253 253 254 254 254 255 255 255 255 255 255 256 256 256 256 256 256 256 256 256 256 256 256 256 256 256 257 257 258 258 258 259 260 261 261
245 245 245 245 246 246 246 247 247 247 247 247 247 247 247 247 247 247 247 247 247 247 247 247 247 247 247 247 248 248 248 248 248 247 247 247 247 247 247 247 248 248 249 249 250 250 251 251 251 251 252 253 253 254 254 254 254 254 254 255 255 255 256 256 256 257 257 256 256 256 256 256 256 256 256 256 257 257 258 258 259 259 259 260 261
245 246 246 246 246 246 246 247 247 247 248 248 248 248 248 248 248 247 247 247 247 247 247 247 247 247 247 247 247 248 248 248 248 248 248 247 247 247 247 247 247 248 248 248 249 249 250 250 250 251 251 252 252 253 253 253 254 254 254 254 254 254 255 255 256 256 257 257 257 257 256 256 256 256 256 256 256 257 257 258 259 259 259 260 260
245 246 246 246 246 247 247 247 247 248 248 248 248 249 249 249 249 249 248 248 248 247 247 247 247 247 247 247 247 247 248 248 248 248 248 248 247 247 247 247 247 247 247 248 248 249 249 249 250 250 250 251 251 252 253 253 253 253 253 253 253 254 254 254 254 255 255 256 257 257 257 257 257 257 257 257 257 257 257 257 258 259 259 260 260
245 245 246 247 247 247 247 248 248 248 248 248 249 249 249 249 249 249 249 249 249 249 248 248 248 247 247 248 248 248 248 248 248 248 248 248 248 248 247 247 247 247 247 247 248 248 248 249 249 249 249 249 250 251 251 252 253 253 253 253 253 253 253 253 253 253 253 254 255 255 256 257 257 257 258 258 258 258 257 257 258 258 259 259 260
245 245 245 246 247 247 247 248 248 248 248 249 249 249 249 250 250 250 250 250 250 250 250 249 249 249 248 248 248 248 248 248 248 248 248 248 248 248 248 248 247 247 247 247 247 248 248 248 248 248 249 249 249 249 250 250 251 252 252 253 253 253 253 253 253 253 253 253 253 254 254 255 256 257 257 258 258 258 258 259 259 259 259 259 260
246 246 246 246 246 246 247 247 248 248 249 249 249 249 250 250 250 250 250 250 251 251 251 251 251 250 250 250 250 249 249 249 249 249 249 249 249 249 249 248 248 248 248 247 247 248 248 248 248 248 248 248 249 249 249 249 250 250 250 251 252 252 252 252 252 253 253 253 253 253 253 254 254 255 256 257 258 258 259 259 259 259 260 260 260
Height
11013 11012 11012 11013 11013 11013 11013 11014 11014 11014 11015 11015 11015 11016 11017 11018 11018 11018 11018 11018 11018 11018 11017 11017 11017 11017 11016 11015 11015 11014 11014 11014 11014 11013 11013 11012 11012 11011 11010 11010 11010 11009 11008 11007 11007 11006 11005 11004 11003 11002 11001 11000 10998 10997 10996 10994 10993 10991 10990 10989 10988 10987 10987 10986 10985 10984 10983 10982 10981 10979 10978 10977 10976 10976 10975 10974 10973 10972 10971 10971 10970 10969 10968 10967 10967
11011 11011 11011 11012 11012 11013 11013 11013 11013 11013 11013 11013 11014 11015 11016 11016 11017 11017 11018 11018 11018 11018 11018 11018 11018 11018 11017 11017 11016 11016 11016 11016 11016 11015 11014 11014 11013 11012 11012 11012 11011 11011 11010 11009 11008 11007 11007 11006 11005 11004 11002 11001 11000 10999 10997 10996 10994 10993 10992 10991 10990 10989 10988 10987 10986 10985 10984 10983 10982 10981 10980 10979 10978 10977 10976 10975 10974 10974 10973 10972 10971 10970 10970 10969 10968
11010 11010 11010 11011 11011 11012 11012 11012 11013 11012 11012 11013 11013 11013 11014 11015 11016 11016 11017 11018 11018 11018 11018 11018 11018 11018 11018 11018 11018 11018 11017 11017 11017 11017 11016 11015 11015 11014 11013 11013 11013 11012 11011 11011 11010 11009 11008 11007 11006 11005 11004 11003 11002 11001 10999 10998 10996 10995 10994 10992 10991 10991 10990 10989 10988 10987 10986 10985 10984 10983 10982 10981 10980 10979 10978 10977 10976 10975 10975 10974 10973 10972 10972 10971 10971
11008 11008 11009 11010 11010 11011 11011 11011 11012 11012 11012 11012 11012 11012 11013 11014 11015 11015 11016 11017 11017 11017 11017 11018 11018 11018 11019 11019 11019 11019 11018 11018 11018 11017 11017 11017 11016 11016 11015 11015 11014 11014 11013 11012 11011 11011 11010 11009 11008 11007 11006 11004 11003 11002 11001 11000 10998 10997 10996 10994 10993 10992 10991 10991 10990 10989 10988 10987 10986 10985 10984 10983 10982 10981 10980 10979 10978 10977 10977 10976 10975 10975 10974 10974 10973
11005 11006 11006 11007 11008 11009 11010 11010 11010 11010 11011 11011 11012 11012 11012 11013 11013 11014 11015 11016 11016 11017 11017 11017 11017 11018 11019 11019 11020 11019 11019 11018 11018 11018 11017 11017 11017 11017 11016 11016 11015 11015 11015 11014 11013 11012 11011 11010 11009 11008 11007 11006 11005 11004 11002 11001 11000 10999 10997 10996 10995 10994 10993 10993 10992 10991 10990 10989 10988 10987 10986 10985 10984 10983 10982 10981 10981 10980 10979 10978 10978 10977 10977 10977 10976
11003 11003 11003 11004 11006 11007 11008 11009 11009 11009 11009 11009 11010 11011 11011 11012 11012 11013 11014 11015 11015 11016 11016 11017 11017 11017 11018 11019 11019 11019 11019 11019 11018 11018 11018 11018 11018 11017 11017 11017 11016 11016 11015 11015 11014 11013 11012 11012 11011 11010 11009 11008 11006 11005 11004 11003 11001 11000 10999 10998 10997 10996 10995 10994 10994 10993 10992 10992 10991 10990 10989 10988 10987 10986 10985 10984 10984 10983 10982 10982 10981 10981 10980 10980 10980
10999 10999 11001 11002 11003 11004 11005 11006 11007 11007 11007 11007 11008 11009 11010 11011 11011 11012 11013 11014 11015 11015 11015 11016 11016 11016 11017 11017 11018 11019 11019 11019 11018 11018 11018 11018 11018 11018 11018 11017 11017 11016 11016 11015 11015 11014 11013 11013 11012 11011 11010 11009 11008 11007 11005 11004 11003 11001 11000 10999 10998 10997 10996 10995 10995 10994 10994 10993 10993 10993 10992 10991 10991 10990 10989 10988 10987 10986 10986 10985 10985 10984 10984 10983 10983
10995 10996 10998 10999 11001 11002 11003 11004 11004 11005 11005 11006 11007 11008 11009 11009 11010 11011 11012 11013 11014 11014 11014 11015 11015 11015 11016 11016 11016 11017 11017 11018 11018 11018 11018 11018 11018 11018 11018 11017 11017 11016 11016 11015 11015 11014 11014 11013 11012 11012 11011 11010 11009 11008 11006 11005 11004 11003 11001 11000 10999 10998 10997 10996 10996 10995 10995 10994 10994 10994 10994 10994 10993 10993 10992 10992 10991 10990 10989 10989 10988 10988 10987 10987 10987
10992 10994 10995 10997 10998 10999 11000 11001 11002 11002 11002 11004 11005 11006 11007 11008 11008 11009 11010 11011 11012 11012 11013 11013 11014 11014 11015 11015 11015 11016 11016 11016 11016 11017 11017 11017 11017 11017 11017 11017 11016 11016 11015 11015 11014 11014 11014 11013 11013 11012 11011 11010 11010 11009 11007 11006 11005 11004 11003 11002 11000 10999 10998 10997 10996 10996 10995 10995 10995 10995 10995 10995 10995 10995 10995 10994 10994 10993 10993 10992 10991 10991 10991 10990 10990
10991 10993 10995 10996 10996 10995 10996 10998 10999 11000 11000 11001 11002 11003 11004 11005 11006 11007 11007 11008 11009 11010 11011 11011 11012 11013 11013 11014 11014 11015 11015 11015 11015 11015 11016 11016 11016 11016 11016 11015 11015 11015 11014 11014 11014 11013 11013 11013 11012 11012 11012 11011 11010 11009 11008 11007 11006 11005 11004 11003 11002 11001 11000 10999 10998 10997 10996 10995 10995 10995 10995 10995 10995 10996 10996 10996 10996 10996 10995 10995 10994 10994 10994 10993 10993
10989 10991 10993 10994 10994 10994 10995 10995 10996 10996 10997 10998 10999 11000 11001 11002 11003 11004 11005 11005 11006 11007 11008 11009 11010 11011 11011 11012 11013 11013 11014 11014 11014 11014 11014 11014 11014 11014 11014 11014 11014 11014 11014 11013 11013 11012 11012 11012 11011 11011 11011 11010 11010 11009 11008 11008 11007 11006 11005 11004 11003 11003 11002 11001 11000 10999 10998 10997 10996 10996 10995 10995 10996 10996 10996 10997 10997 10997 10997 10997 10997 10996 10996 10995 10995
10984 10986 10988 10988 10990 10993 10995 10994 10993 10993 10992 10993 10995 10996 10997 10999 11000 11000 11001 11002 11003 11004 11005 11006 11007 11009 11009 11010 11010 11011 11012 11012 11012 11012 11012 11012 11012 11013 11013 11013 11012 11013 11013 11013 11012 11012 11012 11011 11010 11010 11010 11010 11009 11009 11008 11008 11007 11006 11005 11005 11004 11004 11003 11003 11002 11001 11000 10999 10998 10997 10997 10996 10996 10996 10997 10997 10997 10998 10998 10998 10998 10998 10998 10997 10997
10979 10980 10980 10982 10984 10987 10989 10990 10990 10988 10987 10989 10990 10991 10992 10994 10995 10996 10997 10999 10999 11000 11002 11003 11005 11006 11007 11007 11008 11009 11009 11009 11009 11009 11009 11010 11010 11010 11011 11011 11011 11011 11011 11011 11011 11011 11010 11010 11009 11009 11009 11009 11008 11008 11008 11007 11007 11007 11006 11005 11004 11004 11004 11004 11003 11003 11002 11001 11000 10999 10998 10998 10997 10997 10997 10997 10997 10997 10998 10998 10998 10999 10999 10999 10999
10973 10973 10973 10975 10976 10978 10981 10983 10983 10982 10982 10984 10985 10986 10988 10989 10990 10992 10993 10994 10995 10997 10998 11000 11001 11003 11004 11004 11005 11006 11006 11007 11006 11006 11006 11007 11007 11007 11008 11008 11008 11008 11009 11009 11009 11009 11009 11008 11008 11008 11007 11007 11007 11007 11007 11007 11006 11006 11006 11006 11005 11005 11004 11004 11004 11004 11004 11003 11002 11001 11001 11000 10999 10998 10998 10997 10997 10997 10997 10998 10998 10998 10999 10999 10999
10963 10965 10967 10969 10970 10973 10975 10976 10976 10976 10978 10979 10979 10981 10982 10984 10985 10987 10988 10990 10991 10993 10994 10996 10998 10999 11000 11001 11002 11003 11003 11003 11003 11003 11003 11004 11004 11004 11005 11005 11005 11006 11006 11006 11007 11007 11007 11006 11006 11006 11006 11006 11006 11006 11006 11005 11005 11005 11006 11006 11005 11005 11005 11004 11003 11003 11003 11003 11003 11003 11002 11001 11001 11000 10999 10998 10998 10997 10997 10997 10998 10998 10998 10998 10999
10953 10957 10961 10962 10964 10968 10969 10970 10971 10972 10973 10972 10973 10975 10976 10978 10980 10981 10983 10985 10986 10988 10990 10992 10993 10994 10996 10997 10998 10999 11000 10999 10999 10999 11000 11000 11001 11001 11002 11002 11002 11002 11003 11004 11004 11004 11005 11004 11004 11005 11004 11004 11005 11004 11004 11004 11004 11004 11005 11005 11005 11005 11005 11004 11003 11002 11002 11002 11002 11002 11002 11002 11001 11001 11000 10999 10998 10998 10997 10997 10997 10998 10998 10998 10998
10946 10950 10954 10954 10956 10960 10963 10964 10966 10968 10968 10966 10966 10969 10970 10972 10974 10976 10977 10980 10982 10983 10984 10986 10988 10990 10991 10993 10994 10995 10995 10995 10995 10995 10996 10996 10997 10998 10999 10999 10999 11000 11000 11001 11002 11002 11002 11003 11003 11003 11003 11003 11003 11003 11003 11003 11002 11003 11003 11003 11003 11004 11004 11003 11002 11002 11002 11001 11001 11001 11001 11001 11001 11000 11000 10999 10998 10998 10997 10997 10997 10997 10997 10997 10998
10939 10945 10948 10948 10951 10955 10956 10957 10959 10961 10960 10959 10960 10963 10965 10967 10969 10970 10972 10974 10976 10978 10979 10981 10983 10984 10986 10988 10989 10989 10990 10990 10990 10991 10992 10993 10993 10994 10995 10995 10996 10997 10997 10998 10999 10999 11000 11000 11000 11001 11001 11001 11001 11001 11001 11001 11000 11000 11001 11002 11002 11003 11003 11002 11001 11001 11001 11001 11001 11000 11000 11000 10999 10999 10999 10998 10998 10997 10997 10997 10996 10996 10996 10996 10997
10932 10938 10941 10942 10946 10948 10948 10949 10950 10951 10952 10952 10954 10957 10959 10961 10963 10965 10966 10968 10970 10972 10973 10975 10977 10979 10981 10982 10983 10984 10985 10985 10985 10986 10987 10988 10989 10989 10990 10991 10991 10993 10994 10995 10995 10996 10997 10997 10998 10998 10998 10998 10998 10998 10998 10998 10998 10998 10999 10999 11000 11001 11002 11000 10999 10999 10999 10999 10999 10999 10998 10998 10998 10997 10997 10996 10996 10996 10996 10996 10996 10996 10995 10995 10995
10925 10929 10932 10935 10939 10940 10941 10942 10942 10943 10945 10947 10949 10951 10953 10955 10956 10958 10960 10962 10964 10966 10967 10969 10971 10972 10974 10975 10977 10978 10979 10980 10980 10981 10982 10982 10983 10984 10986 10986 10988 10989 10990 10991 10992 10992 10993 10994 10994 10994 10994 10994 10995 10995 10995 10996 10995 10995 10996 10997 10998 10999 11000 10998 10996 10996 10996 10997 10997 10997 10996 10996 10996 10995 10995 10994 10994 10993 10993 10994 10994 10994 10994 10994 10993
10917 10920 10923 10927 10930 10932 10933 10934 10936 10938 10941 10942 10943 10945 10946 10947 10948 10950 10953 10955 10958 10959 10960 10962 10964 10965 10967 10968 10970 10972 10973 10974 10975 10976 10976 10977 10979 10980 10981 10982 10984 10984 10985 10986 10987 10988 10989 10990 10990 10991 10991 10991 10991 10992 10993 10994 10994 10993 10994 10995 10996 10997 10997 10996 10995 10994 10994 10994 10994 10993 10993 10993 10994 10993 10993 10992 10991 10991 10991 10991 10992 10992 10992 10992 10992
10909 10911 10914 10917 10920 10923 10925 10927 10929 10932 10934 10935 10937 10938 10939 10940 10941 10943 10946 10949 10951 10953 10954 10955 10957 10959 10961 10962 10964 10965 10967 10968 10969 10970 10971 10972 10974 10976 10977 10978 10979 10980 10980 10981 10982 10983 10984 10985 10986 10987 10987 10988 10988 10989 10990 10991 10991 10991 10991 10992 10993 10994 10994 10994 10993 10992 10991 10991 10991 10990 10990 10991 10991 10991 10990 10990 10989 10989 10988 10989 10989 10989 10990 10990 10990
10899 10902 10905 10908 10911 10914 10917 10919 10921 10924 10927 10929 10930 10931 10932 10933 10934 10936 10939 10943 10945 10946 10948 10949 10951 10953 10954 10956 10957 10959 10960 10962 10962 10964 10965 10967 10969 10971 10972 10974 10975 10975 10976 10977 10978 10978 10979 10980 10982 10983 10983 10984 10985 10986 10987 10988 10988 10988 10989 10989 10990 10990 10990 10990 10990 10990 10989 10988 10988 10988 10988 10988 10988 10988 10988 10987 10987 10986 10986 10987 10987 10986 10986 10987 10987
10889 10892 10896 10899 10902 10905 10908 10911 10913 10916 10919 10922 10923 10924 10925 10927 10928 10929 10932 10935 10938 10941 10942 10944 10945 10946 10947 10949 10951 10952 10954 10955 10956 10958 10961 10963 10964 10966 10967 10969 10970 10971 10972 10973 10974 10974 10975 10976 10977 10978 10980 10981 10982 10983 10984 10984 10985 10985 10985 10985 10986 10986 10986 10986 10986 10986 10985 10985 10984 10984 10985 10985 10985 10984 10984 10983 10983 10983 10984 10984 10984 10984 10984 10984 10984
10879 10882 10886 10889 10892 10896 10900 10903 10906 10909 10912 10914 10916 10917 10918 10920 10922 10923 10925 10928 10932 10934 10936 10937 10938 10939 10940 10942 10944 10946 10947 10949 10950 10952 10955 10957 10959 10961 10962 10964 10965 10966 10966 10967 10968 10970 10971 10972 10973 10974 10976 10977 10978 10979 10979 10980 10981 10981 10981 10981 10982 10982 10982 10982 10982 10983 10982 10981 10981 10981 10981 10981 10981 10980 10980 10980 10980 10981 10982 10982 10982 10982 10981 10981 10981
10868 10871 10875 10878 10882 10886 10890 10893 10897 10900 10903 10906 10908 10909 10911 10912 10914 10916 10918 10921 10925 10927 10929 10930 10931 10932 10933 10935 10937 10939 10941 10943 10945 10946 10948 10950 10953 10955 10957 10958 10959 10960 10961 10962 10963 10964 10965 10967 10969 10970 10972 10973 10974 10974 10975 10976 10977 10977 10977 10977 10977 10977 10978 10979 10979 10978 10977 10977 10977 10977 10977 10978 10978 10978 10978 10978 10979 10979 10980 10981 10980 10980 10980 10980 10979
10856 10859 10863 10867 10871 10875 10879 10882 10886 10889 10893 10896 10899 10900 10902 10904 10906 10908 10911 10914 10917 10920 10921 10922 10923 10925 10926 10927 10930 10932 10934 10936 10938 10939 10941 10944 10946 10948 10950 10952 10953 10954 10955 10956 10957 10958 10959 10962 10964 10966 10967 10968 10969 10969 10970 10971 10972 10972 10972 10972 10972 10973 10975 10975 10973 10972 10971 10971 10972 10973 10974 10975 10976 10976 10976 10977 10976 10977 10978 10979 10977 10977 10977 10977 10976
10843 10847 10850 10854 10858 10863 10866 10870 10874 10878 10882 10886 10889 10891 10893 10895 10898 10900 10903 10906 10909 10911 10912 10913 10914 10916 10917 10919 10921 10923 10925 10927 10930 10932 10934 10937 10939 10941 10943 10945 10947 10948 10949 10950 10951 10952 10954 10956 10958 10960 10961 10962 10963 10964 10965 10966 10967 10968 10968 10968 10968 10968 10969 10968 10966 10965 10966 10966 10967 10969 10970 10971 10972 10972 10973 10973 10973 10973 10975 10976 10974 10974 10974 10974 10972
10830 10833 10837 10841 10845 10849 10854 10858 10862 10866 10870 10874 10878 10880 10882 10885 10887 10890 10892 10895 10898 10900 10902 10903 10904 10906 10907 10909 10911 10914 10916 10918 10921 10924 10927 10929 10932 10934 10935 10937 10939 10941 10942 10943 10945 10947 10948 10950 10951 10953 10955 10956 10958 10959 10960 10961 10962 10963 10963 10963 10963 10963 10964 10963 10961 10960 10962 10962 10963 10964 10965 10966 10967 10967 10968 10968 10968 10969 10971 10971 10970 10969 10969 10969 10968
10816 10820 10823 10827 10831 10836 10841 10845 10849 10853 10857 10861 10865 10868 10871 10873 10875 10878 10881 10884 10886 10888 10891 10893 10895 10897 10899 10901 10902 10904 10906 10909 10912 10916 10918 10921 10924 10925 10927 10929 10931 10932 10934 10936 10938 10940 10942 10943 10945 10947 10949 10950 10951 10953 10954 10955 10956 10957 10958 10958 10958 10958 10957 10957 10956 10956 10958 10958 10959 10959 10960 10961 10961 10961 10962 10963 10963 10964 10966 10967 10966 10965 10965 10965 10964
10803 10806 10810 10813 10818 10823 10827 10832 10836 10840 10844 10848 10853 10856 10859 10861 10864 10866 10869 10872 10874 10877 10880 10882 10885 10888 10891 10893 10894 10895 10896 10899 10903 10907 10909 10911 10914 10915 10917 10921 10923 10925 10926 10928 10931 10932 10934 10936 10938 10941 10942 10943 10944 10946 10947 10949 10949 10950 10951 10952 10952 10952 10950 10950 10951 10952 10953 10954 10954 10955 10955 10955 10955 10955 10956 10957 10957 10958 10960 10961 10962 10961 10961 10961 10960
10789 10792 10796 10800 10804 10809 10814 10818 10822 10826 10831 10835 10839 10842 10845 10848 10851 10854 10857 10859 10862 10865 10868 10871 10874 10877 10881 10883 10884 10885 10887 10889 10892 10896 10899 10901 10903 10905 10907 10911 10914 10916 10918 10920 10923 10925 10926 10928 10931 10933 10935 10936 10937 10938 10940 10941 10942 10943 10944 10945 10945 10945 10944 10944 10945 10947 10948 10949 10949 10949 10949 10949 10949 10949 10950 10950 10951 10951 10953 10955 10957 10957 10957 10957 10956
10773 10778 10782 10787 10791 10796 10800 10804 10808 10811 10815 10819 10824 10828 10832 10835 10838 10841 10844 10847 10850 10854 10857 10860 10863 10866 10869 10872 10874 10875 10877 10879 10882 10884 10887 10890 10893 10894 10897 10901 10904 10906 10908 10912 10914 10917 10918 10920 10923 10925 10927 10928 10930 10931 10933 10934 10935 10936 10937 10938 10938 10937 10937 10938 10939 10940 10942 10943 10943 10943 10944 10944 10944 10943 10943 10944 10945 10945 10947 10949 10951 10952 10952 10952 10952
10757 10762 10768 10773 10778 10782 10785 10789 10792 10796 10799 10803 10808 10813 10818 10822 10825 10829 10832 10835 10838 10841 10844 10848 10851 10853 10857 10860 10863 10864 10867 10869 10871 10874 10876 10879 10882 10884 10887 10891 10894 10896 10899 10902 10905 10907 10909 10912 10914 10916 10918 10919 10921 10923 10925 10926 10927 10929 10930 10930 10930 10929 10930 10931 10932 10933 10935 10936 10935 10937 10938 10939 10938 10938 10937 10937 10938 10939 10941 10943 10944 10946 10946 10946 10946
10742 10747 10752 10758 10763 10767 10770 10773 10776 10780 10783 10788 10793 10799 10804 10809 10813 10816 10819 10822 10825 10828 10831 10834 10838 10841 10843 10847 10850 10852 10855 10857 10860 10863 10865 10867 10869 10873 10876 10880 10884 10886 10888 10891 10894 10897 10899 10902 10904 10906 10908 10909 10912 10914 10916 10918 10920 10921 10922 10922 10922 10922 10922 10923 10924 10926 10927 10927 10927 10929 10931 10932 10932 10932 10932 10932 10932 10933 10934 10936 10938 10940 10941 10941 10941
10726 10731 10736 10742 10747 10751 10754 10757 10760 10764 10768 10773 10779 10784 10790 10795 10799 10802 10804 10807 10811 10814 10817 10820 10824 10827 10830 10833 10836 10840 10842 10845 10848 10850 10852 10854 10857 10861 10864 10868 10872 10875 10877 10880 10882 10885 10888 10891 10893 10896 10898 10900 10902 10904 10907 10909 10911 10913 10914 10914 10914 10914 10914 10915 10916 10917 10919 10919 10920 10921 10922 10923 10924 10925 10926 10926 10926 10927 10927 10930 10932 10933 10934 10935 10934
10711 10715 10720 10725 10730 10733 10737 10740 10744 10749 10754 10759 10764 10769 10775 10779 10783 10786 10789 10792 10796 10800 10803 10807 10810 10814 10817 10820 10823 10826 10829 10831 10833 10836 10839 10842 10845 10848 10851 10855 10858 10862 10864 10867 10870 10873 10876 10879 10882 10885 10887 10889 10890 10893 10896 10898 10900 10902 10904 10905 10905 10905 10906 10907 10908 10908 10910 10911 10912 10913 10914 10915 10915 10916 10918 10919 10919 10920 10921 10922 10924 10925 10925 10925 10924
10695 10699 10703 10707 10712 10716 10719 10723 10728 10733 10738 10743 10748 10754 10759 10763 10766 10770 10774 10778 10782 10786 10789 10792 10796 10799 10802 10805 10809 10812 10814 10817 10819 10822 10826 10829 10832 10834 10837 10840 10844 10847 10851 10854 10857 10861 10863 10866 10869 10873 10875 10877 10878 10881 10884 10887 10889 10891 10893 10894 10895 10896 10896 10897 10898 10899 10900 10903 10904 10904 10905 10906 10907 10907 10909 10910 10911 10912 10913 10913 10914 10915 10916 10916 10916
10678 10682 10686 10690 10694 10698 10702 10705 10710 10716 10722 10728 10733 10738 10743 10746 10750 10754 10759 10763 10767 10770 10774 10777 10780 10783 10786 10790 10793 10797 10800 10802 10804 10807 10810 10814 10817 10820 10823 10826 10829 10833 10836 10840 10843 10847 10850 10853 10856 10859 10862 10865 10867 10869 10871 10874 10877 10879 10881 10883 10884 10885 10886 10887 10888 10888 10889 10892 10895 10895 10896 10897 10898 10899 10899 10900 10901 10904 10905 10905 10905 10906 10907 10908 10908
10661 10665 10668 10673 10677 10681 10686 10690 10694 10699 10705 10711 10716 10721 10725 10729 10734 10738 10743 10747 10750 10754 10757 10760 10763 10766 10769 10773 10778 10782 10786 10788 10790 10792 10795 10798 10801 10804 10808 10811 10815 10819 10822 10825 10828 10832 10836 10839 10843 10846 10849 10852 10855 10857 10859 10861 10864 10867 10869 10871 10872 10873 10874 10875 10876 10877 10878 10881 10883 10885 10886 10887 10889 10889 10890 10890 10891 10894 10895 10896 10896 10897 10898 10898 10898
10643 10647 10651 10655 10660 10665 10670 10675 10678 10682 10687 10693 10698 10703 10708 10712 10717 10721 10726 10730 10733 10737 10740 10744 10747 10750 10753 10757 10761 10765 10770 10773 10775 10777 10780 10783 10786 10788 10792 10796 10800 10804 10807 10810 10813 10817 10821 10824 10828 10832 10835 10839 10842 10845 10846 10848 10850 10853 10856 10859 10860 10861 10862 10863 10864 10866 10867 10869 10872 10874 10875 10876 10877 10879 10880 10880 10881 10883 10885 10886 10886 10887 10889 10889 10889
10626 10630 10633 10637 10642 10648 10653 10658 10662 10666 10670 10675 10680 10685 10690 10695 10699 10704 10708 10712 10716 10720 10723 10727 10730 10732 10735 10738 10742 10747 10752 10755 10758 10761 10763 10766 10770 10773 10776 10779 10783 10788 10792 10796 10799 10802 10806 10809 10813 10816 10820 10824 10827 10830 10833 10835 10836 10839 10842 10845 10847 10849 10849 10850 10851 10853 10855 10858 10860 10862 10864 10864 10865 10866 10868 10868 10870 10872 10874 10875 10876 10877 10878 10879 10879
10609 10613 10616 10620 10625 10631 10636 10640 10645 10649 10653 10657 10662 10667 10672 10676 10681 10685 10690 10694 10698 10701 10705 10708 10711 10713 10716 10720 10724 10729 10733 10737 10740 10743 10746 10749 10753 10757 10760 10763 10767 10771 10775 10779 10783 10788 10792 10795 10797 10800 10804 10807 10811 10814 10818 10820 10822 10824 10827 10830 10833 10835 10836 10837 10838 10840 10843 10846 10848 10849 10852 10853 10854 10854 10854 10855 10857 10860 10862 10863 10864 10865 10866 10867 10868
10592 10596 10600 10604 10609 10613 10617 10622 10626 10630 10634 10639 10644 10648 10653 10657 10661 10665 10670 10674 10678 10682 10685 10689 10692 10695 10698 10701 10705 10709 10713 10717 10721 10725 10728 10732 10736 10740 10744 10747 10751 10755 10758 10762 10766 10771 10775 10779 10782 10784 10788 10791 10794 10798 10801 10804 10806 10809 10812 10815 10818 10820 10822 10824 10825 10827 10830 10833 10835 10836 10838 10840 10842 10842 10842 10842 10843 10846 10848 10850 10851 10852 10854 10855 10855
10575 10580 10584 10589 10593 10596 10600 10604 10608 10612 10616 10620 10624 10629 10633 10637 10641 10645 10649 10653 10658 10662 10665 10669 10673 10676 10679 10682 10685 10688 10691 10696 10701 10705 10709 10713 10718 10722 10726 10730 10734 10737 10741 10744 10748 10751 10756 10761 10766 10769 10772 10775 10778 10782 10785 10788 10790 10793 10796 10799 10803 10805 10807 10809 10811 10814 10817 10819 10822 10823 10824 10826 10828 10830 10830 10830 10831 10832 10834 10836 10837 10839 10840 10841 10842
10559 10564 10568 10572 10576 10580 10583 10587 10590 10594 10598 10601 10605 10609 10613 10617 10621 10625 10629 10633 10637 10641 10645 10649 10653 10656 10659 10661 10664 10667 10671 10675 10680 10685 10689 10693 10698 10703 10707 10711 10715 10720 10724 10727 10730 10733 10738 10743 10749 10753 10757 10759 10762 10765 10769 10772 10774 10777 10781 10784 10788 10791 10793 10794 10797 10800 10802 10805 10807 10809 10811 10812 10814 10815 10817 10818 10819 10820 10821 10821 10822 10824 10826 10827 10828
10543 10547 10551 10555 10560 10563 10567 10570 10574 10577 10580 10583 10586 10590 10593 10597 10601 10605 10608 10612 10616 10620 10624 10628 10631 10634 10638 10641 10644 10648 10651 10655 10659 10664 10668 10673 10678 10682 10687 10692 10696 10701 10706 10709 10712 10715 10720 10725 10730 10735 10739 10742 10745 10747 10751 10754 10757 10761 10765 10769 10773 10776 10779 10781 10783 10785 10787 10789 10792 10794 10796 10798 10799 10800 10802 10804 10806 10807 10808 10808 10808 10809 10811 10813 10814
10527 10531 10535 10539 10543 10547 10550 10554 10557 10560 10563 10566 10569 10572 10575 10579 10582 10585 10588 10592 10596 10599 10603 10606 10609 10612 10616 10620 10624 10628 10632 10635 10638 10643 10647 10651 10656 10661 10666 10671 10677 10682 10686 10690 10693 10697 10701 10706 10711 10715 10720 10725 10728 10730 10733 10737 10740 10745 10749 10753 10757 10761 10764 10766 10768 10770 10771 10773 10776 10778 10781 10783 10784 10785 10785 10788 10790 10792 10794 10795 10795 10795 10796 10798 10800
10514 10517 10520 10524 10527 10530 10534 10537 10540 10543 10546 10549 10552 10555 10557 10560 10563 10566 10569 10572 10575 10578 10582 10585 10589 10592 10596 10600 10604 10608 10612 10615 10618 10621 10625 10630 10634 10639 10645 10651 10656 10661 10666 10670 10674 10678 10682 10685 10690 10695 10701 10706 10710 10713 10716 10720 10723 10727 10731 10735 10740 10744 10747 10749 10752 10754 10755 10758 10760 10762 10764 10767 10770 10770 10770 10772 10773 10776 10779 10781 10781 10781 10782 10783 10785
10500 10503 10506 10509 10512 10514 10517 10520 10523 10526 10529 10531 10534 10537 10540 10542 10545 10547 10550 10553 10556 10559 10562 10565 10569 10573 10577 10581 10584 10589 10592 10595 10598 10602 10605 10610 10614 10619 10624 10630 10635 10640 10645 10650 10655 10658 10661 10665 10670 10675 10681 10686 10690 10694 10698 10702 10705 10709 10713 10717 10721 10725 10729 10731 10734 10736 10738 10741 10744 10747 10749 10752 10754 10755 10756 10757 10758 10759 10762 10764 10765 10766 10767 10769 10769
10485 10488 10491 10493 10496 10499 10501 10504 10506 10509 10511 10514 10517 10519 10521 10524 10526 10529 10531 10534 10537 10540 10543 10547 10550 10555 10558 10562 10566 10570 10573 10577 10580 10583 10587 10591 10595 10600 10604 10609 10614 10619 10625 10630 10634 10637 10640 10645 10650 10655 10660 10664 10669 10673 10678 10683 10686 10690 10695 10698 10701 10705 10708 10712 10715 10717 10719 10722 10727 10731 10733 10736 10738 10740 10741 10742 10743 10745 10746 10747 10748 10750 10752 10753 10754